Orbital Elements at Epoch 2459200.5 (2020-Dec-17.0) TDB
Reference: JPL 19 (heliocentric ecliptic J2000)
Element | Value | Uncertainty (1-sigma) | Units |
e | .1175138623266005 | 5.7238e-08 | |
a | 3.10665387290687 | 2.4908e-08 | au |
q | 2.741578977389691 | 1.681e-07 | au |
i | 7.874070197797746 | 5.3106e-06 | deg |
node | 156.80848435 | 3.7869e-05 | deg |
peri | 201.0834872278392 | 4.3784e-05 | deg |
M | 38.9943489203112 | 2.0267e-05 | deg |
tp | 2458983.860869850122 (2020-May-14.36086985) | 0.00011253 | TDB |
period | 2000.035620887954 5.48 | 2.4053e-05 6.585e-08 | d yr |
n | .1799967941771813 | 2.1647e-09 | deg/d |
Q | 3.471728768424048 | 2.7835e-08 | au |
|
| | Orbit Determination Parameters
Additional Information
|